Wind_Speed
38 38 38 37 38 38 38 38 38 37 38 38 37 36 35 34 34 34 34 34 35 35 35 36 36 37 37 37 38 39 40 40 40 40 40 40 41 41 41 42 43 43 44
38 38 39 38 38 38 38 39 39 39 39 39 38 38 36 37 36 36 36 35 36 37 37 37 37 38 39 39 40 40 41 41 42 42 43 43 43 43 44 44 45 45 45
37 38 39 39 39 39 39 39 40 40 41 40 40 39 40 38 38 38 38 38 38 37 38 38 39 40 40 40 41 41 42 42 43 44 45 45 45 45 45 46 46 46 46
36 37 38 39 39 39 39 41 41 41 41 41 41 41 40 41 40 39 39 39 39 39 39 40 41 42 43 43 43 43 43 44 45 45 46 47 47 47 47 47 47 48 48
37 37 37 38 39 40 40 41 42 42 42 42 43 43 43 42 42 42 41 41 41 41 42 42 43 44 45 45 46 45 45 45 46 46 47 48 48 48 49 48 48 49 49
37 37 38 38 38 39 41 41 42 43 42 42 42 43 43 43 43 42 43 43 44 44 44 44 44 45 46 46 45 45 45 46 46 47 48 48 48 49 49 50 49 49 49
36 36 37 38 38 39 39 41 41 42 43 42 42 43 43 43 44 44 44 44 45 45 46 46 46 46 46 46 46 46 46 46 47 47 47 48 48 49 49 50 50 50 50
35 36 37 37 38 39 39 40 41 42 43 44 43 43 44 45 45 45 45 46 47 46 47 47 46 46 47 46 47 47 47 47 47 47 47 47 47 48 48 49 50 50 50
34 35 36 37 38 39 40 40 41 42 43 44 44 44 45 45 45 45 46 46 46 46 46 46 45 45 45 45 45 46 47 48 48 47 47 47 47 48 48 49 50 50 50
34 35 36 37 38 38 39 40 41 42 43 44 45 45 45 46 46 46 47 47 47 46 45 45 45 45 45 45 45 44 45 46 47 47 47 47 48 48 48 48 49 50 50
33 33 35 36 37 38 39 40 41 42 43 44 44 45 45 45 46 47 47 47 46 46 46 46 46 46 45 45 45 45 46 46 46 46 47 47 47 48 49 50 50 50 50
32 32 33 34 35 36 38 39 40 41 43 44 44 44 45 45 46 46 46 46 46 46 46 46 46 45 45 45 45 45 45 46 47 47 48 48 48 48 48 49 49 49 48
31 32 32 34 35 36 36 37 39 40 41 42 43 44 44 45 46 46 46 46 46 46 47 46 46 47 46 46 46 46 46 46 46 47 47 47 47 47 47 47 48 48 48
32 32 33 34 35 36 36 37 38 39 40 41 42 42 43 44 45 46 46 46 46 47 47 47 47 47 47 47 46 46 46 46 46 46 47 46 46 47 47 47 47 47 47
31 32 33 34 35 36 37 37 37 38 39 40 41 42 43 43 44 45 45 45 45 46 46 46 47 47 47 47 46 46 46 46 46 47 47 47 47 48 48 48 47 46 46
31 31 32 33 34 35 36 37 37 37 38 39 39 41 42 42 42 43 44 45 45 45 45 46 46 46 46 46 46 46 46 46 47 46 46 46 47 47 47 47 47 46 46
31 32 32 32 33 34 35 36 36 37 38 39 39 40 41 41 42 43 43 44 44 44 44 44 44 45 45 45 46 46 46 46 46 47 46 46 46 47 46 46 46 45 44
32 32 33 33 33 33 34 36 36 37 38 39 40 40 40 41 42 42 42 43 44 44 44 44 43 44 46 46 46 46 46 45 45 46 46 46 46 46 45 45 44 44 44
32 32 32 32 33 34 35 35 36 36 38 39 39 40 41 40 41 41 42 43 43 43 43 43 44 44 44 45 45 45 45 45 44 44 44 44 44 44 43 43 44 43 43
30 30 31 32 33 34 35 36 36 37 38 38 39 39 40 41 41 41 41 42 42 43 43 43 43 43 43 43 43 43 42 42 43 43 43 43 42 42 42 42 42 42 41
30 30 30 31 32 33 34 35 37 37 38 38 38 39 39 40 41 40 40 41 41 41 41 41 42 42 42 42 42 41 41 41 41 40 40 41 41 41 41 41 41 41 41
31 31 31 32 33 33 34 35 36 37 38 37 36 36 37 37 37 38 38 39 39 39 39 40 40 40 40 40 40 40 39 39 40 40 39 39 39 39 39 39 40 40 40
30 31 32 32 33 34 34 34 34 35 35 34 34 34 34 34 35 36 37 37 38 38 38 38 38 39 39 39 39 39 39 39 38 38 38 38 39 39 38 37 37 38 38
31 31 31 31 32 33 34 34 34 33 33 33 32 33 33 34 34 35 36 36 37 37 37 37 37 38 38 38 38 38 38 38 37 37 37 37 37 37 37 37 37 37 37
30 31 31 31 31 31 32 32 32 32 31 31 31 32 33 33 34 34 35 35 36 35 35 36 36 36 37 37 36 36 37 37 37 37 36 36 36 36 36 36 36 36 36
29 29 29 30 30 29 29 29 30 31 31 31 32 32 33 33 34 34 34 33 34 34 34 35 34 34 35 34 34 34 34 35 35 35 35 35 35 36 36 36 36 36 35
Wind_Direction
249 250 250 250 250 251 250 248 247 246 246 248 249 250 251 252 254 256 257 259 261 263 264 265 266 267 268 269 270 270 271 271 271 271 272 272 273 274 274 275 276 276 277
250 249 250 251 251 251 250 249 248 246 247 247 248 249 251 252 254 257 258 260 262 264 265 266 267 269 270 270 271 271 272 272 272 273 273 273 273 274 275 276 277 277 277
249 249 249 249 250 251 250 248 247 247 248 248 248 250 252 255 255 256 258 260 263 265 266 268 269 270 271 271 271 271 272 272 272 273 273 274 275 275 275 276 276 277 277
249 249 249 249 249 250 250 249 248 247 247 248 249 251 252 255 256 257 259 261 264 266 268 269 270 271 272 272 273 273 273 274 273 273 274 275 276 276 276 276 276 277 278
250 249 250 249 249 250 249 249 248 247 249 250 250 252 253 255 258 260 261 262 264 266 268 270 271 272 273 274 273 273 274 274 274 274 275 275 276 276 277 277 278 278 278
251 250 251 251 250 249 249 248 248 247 248 250 252 253 255 257 259 260 262 264 265 267 269 271 272 273 274 273 273 273 273 273 273 274 275 276 277 277 277 278 278 279 279
252 251 251 252 251 250 250 249 249 248 249 251 251 253 255 257 259 261 262 265 267 268 269 271 272 272 273 273 272 273 273 274 274 275 276 277 277 277 277 278 279 279 279
253 252 252 252 252 251 251 251 250 249 250 251 252 254 255 257 260 262 264 267 268 269 271 272 272 272 273 273 272 273 273 274 274 275 275 276 277 277 277 278 279 279 278
254 254 253 252 252 253 252 252 251 251 251 252 254 254 256 259 260 263 265 267 269 270 271 271 271 272 273 274 274 273 273 274 274 274 275 276 277 277 277 278 279 279 279
253 253 253 252 252 253 253 253 252 251 251 253 254 256 258 259 261 263 266 268 269 270 270 270 272 273 274 274 274 274 274 274 274 275 275 276 277 278 278 280 280 279 279
256 256 255 253 253 253 254 254 254 253 253 254 256 258 259 261 262 264 266 268 269 270 271 270 271 272 273 274 274 274 275 275 275 276 277 278 279 280 280 281 281 281 281
257 257 256 255 254 254 254 255 254 254 254 255 257 259 261 262 265 266 267 268 269 270 270 271 271 272 272 274 274 275 275 276 277 278 279 280 280 280 282 283 283 282 282
257 257 257 256 255 255 255 255 255 256 256 257 258 260 261 263 265 266 267 268 269 270 270 271 272 272 273 274 274 275 275 277 277 278 279 280 280 280 281 282 282 282 281
258 258 258 257 256 256 256 257 257 257 257 258 259 261 263 264 265 267 268 268 269 269 270 271 272 272 273 273 274 275 275 277 277 278 278 279 280 281 281 282 282 283 281
260 260 260 260 259 258 257 258 258 258 258 259 260 262 264 265 266 267 266 268 269 270 271 271 271 272 273 273 273 275 276 278 279 279 279 279 280 281 282 282 282 283 281
260 262 263 262 261 259 259 259 259 260 260 261 262 263 264 267 268 267 267 268 270 271 272 272 271 272 272 273 274 276 277 278 279 279 280 280 281 282 282 283 282 283 283
260 264 265 263 261 260 259 259 259 260 262 262 263 265 265 268 268 268 270 270 271 271 272 272 272 272 272 273 275 275 277 278 279 279 279 280 281 282 282 282 282 282 282
263 265 266 264 262 261 261 260 261 261 262 263 264 265 266 267 268 269 270 271 271 272 272 273 273 273 273 274 275 276 277 278 278 279 279 280 281 281 281 281 281 281 281
265 265 265 265 264 263 262 261 262 262 264 265 266 266 266 267 269 270 271 271 272 272 273 272 273 273 274 275 275 277 277 278 278 279 280 280 280 280 280 280 280 280 280
265 265 265 266 265 264 262 262 262 264 265 265 266 266 266 266 269 271 272 272 273 273 274 273 273 273 274 275 276 277 278 278 278 279 279 280 280 279 279 279 280 280 280
266 266 267 267 266 266 265 264 264 265 266 267 267 266 266 267 269 270 272 273 273 274 275 275 275 275 276 277 277 277 278 278 279 280 281 281 280 279 279 279 280 280 280
269 268 268 267 268 267 267 266 265 265 266 266 266 266 266 268 269 270 271 272 273 274 275 276 276 277 277 277 277 278 279 279 279 281 282 281 281 281 281 281 281 281 280
270 269 269 268 268 268 268 267 266 266 265 265 265 266 266 268 270 272 272 273 274 274 275 276 276 277 278 278 277 277 278 279 280 281 282 281 281 281 281 281 281 281 280
271 271 271 270 269 269 268 266 265 265 265 264 265 266 267 269 272 273 273 273 273 274 275 276 277 277 278 278 277 277 278 279 280 281 281 280 280 281 281 281 281 282 281
272 272 272 271 271 270 268 266 264 264 264 264 265 266 268 271 273 274 274 273 273 274 275 276 277 278 278 279 278 279 278 278 278 279 280 279 279 280 281 281 282 282 281
272 273 273 273 272 271 268 266 264 263 264 265 266 267 269 271 273 274 274 274 274 274 275 276 278 278 279 278 278 279 279 279 278 278 280 279 279 280 281 282 282 282 281
Height
5743 5744 5746 5748 5750 5752 5755 5757 5759 5761 5763 5765 5767 5769 5771 5772 5773 5774 5775 5775 5776 5776 5776 5776 5776 5776 5776 5776 5775 5774 5774 5774 5773 5773 5772 5772 5771 5770 5769 5768 5767 5765 5764
5734 5736 5738 5740 5742 5743 5746 5748 5750 5752 5754 5756 5758 5760 5762 5763 5764 5765 5766 5766 5767 5767 5767 5767 5767 5767 5767 5766 5766 5765 5764 5763 5762 5762 5761 5761 5761 5760 5758 5757 5755 5754 5752
5725 5727 5729 5731 5732 5734 5736 5739 5741 5743 5745 5747 5749 5751 5753 5755 5755 5756 5757 5758 5758 5758 5757 5758 5757 5757 5757 5756 5755 5754 5754 5753 5752 5750 5750 5749 5749 5749 5748 5746 5744 5742 5740
5716 5718 5720 5721 5723 5725 5727 5729 5731 5734 5736 5738 5740 5742 5744 5745 5746 5747 5747 5747 5748 5747 5747 5747 5747 5747 5746 5745 5744 5743 5742 5741 5740 5739 5738 5737 5736 5735 5735 5735 5732 5730 5728
5707 5708 5710 5712 5713 5715 5717 5719 5721 5724 5726 5728 5730 5732 5733 5734 5736 5736 5737 5737 5737 5737 5737 5737 5736 5736 5735 5734 5733 5732 5731 5729 5728 5727 5726 5725 5723 5722 5721 5721 5720 5718 5716
5697 5699 5700 5702 5703 5705 5707 5709 5711 5714 5716 5718 5720 5721 5723 5724 5725 5726 5726 5727 5726 5726 5726 5725 5724 5724 5723 5722 5720 5719 5718 5717 5716 5715 5714 5712 5711 5710 5708 5707 5706 5704 5703
5687 5689 5691 5692 5694 5695 5697 5699 5701 5703 5705 5707 5709 5711 5712 5713 5715 5715 5715 5715 5715 5715 5714 5713 5713 5711 5710 5709 5708 5707 5706 5705 5704 5703 5701 5700 5698 5696 5695 5693 5692 5691 5689
5678 5679 5681 5682 5684 5685 5687 5688 5690 5693 5695 5697 5699 5700 5701 5702 5703 5704 5704 5704 5704 5703 5702 5701 5700 5699 5698 5697 5696 5695 5694 5693 5692 5691 5689 5687 5685 5684 5682 5680 5678 5677 5676
5668 5669 5671 5672 5673 5675 5677 5678 5680 5682 5684 5686 5687 5689 5690 5691 5692 5692 5692 5692 5692 5691 5690 5689 5688 5687 5686 5685 5684 5683 5682 5681 5680 5678 5676 5675 5673 5671 5669 5667 5665 5664 5662
5659 5659 5660 5662 5663 5664 5666 5668 5669 5671 5673 5674 5676 5678 5679 5680 5680 5680 5680 5680 5680 5679 5678 5678 5677 5676 5675 5674 5673 5672 5670 5669 5667 5666 5664 5662 5661 5659 5657 5655 5652 5650 5648
5649 5650 5651 5652 5653 5654 5655 5657 5658 5660 5662 5663 5664 5666 5667 5668 5668 5668 5668 5668 5668 5667 5667 5666 5665 5664 5664 5662 5661 5660 5659 5657 5655 5653 5652 5650 5648 5646 5644 5642 5640 5638 5635
5639 5640 5641 5642 5643 5644 5646 5647 5648 5649 5651 5652 5653 5654 5655 5656 5656 5656 5656 5656 5656 5655 5655 5654 5653 5653 5652 5651 5650 5648 5647 5646 5644 5642 5640 5638 5636 5635 5633 5630 5628 5625 5623
5630 5631 5632 5632 5634 5635 5636 5637 5638 5639 5640 5641 5642 5643 5644 5644 5644 5644 5644 5644 5643 5643 5642 5642 5641 5641 5640 5639 5638 5637 5635 5634 5632 5630 5629 5627 5625 5623 5621 5618 5616 5613 5611
5621 5622 5622 5623 5624 5625 5626 5627 5628 5628 5629 5631 5631 5632 5632 5632 5632 5632 5632 5632 5631 5631 5630 5629 5629 5628 5628 5627 5626 5625 5623 5622 5620 5619 5617 5615 5613 5611 5608 5606 5604 5601 5599
5612 5613 5613 5614 5614 5615 5616 5616 5617 5618 5619 5620 5620 5620 5620 5620 5620 5620 5620 5619 5619 5618 5618 5617 5617 5616 5616 5615 5614 5613 5611 5610 5608 5607 5605 5603 5601 5598 5596 5594 5592 5589 5587
5603 5603 5603 5604 5604 5605 5606 5607 5607 5608 5608 5609 5609 5609 5609 5609 5609 5608 5608 5608 5607 5607 5606 5605 5604 5604 5603 5603 5601 5600 5599 5598 5597 5595 5593 5591 5589 5587 5584 5582 5580 5578 5575
5594 5594 5594 5594 5594 5595 5596 5596 5597 5597 5598 5598 5598 5598 5598 5598 5597 5597 5596 5596 5595 5595 5594 5593 5592 5592 5591 5590 5589 5588 5587 5586 5584 5582 5581 5579 5577 5575 5573 5570 5568 5566 5564
5584 5585 5585 5585 5585 5585 5586 5586 5586 5587 5587 5587 5587 5587 5587 5587 5586 5586 5585 5585 5584 5583 5582 5582 5581 5580 5579 5578 5577 5576 5574 5573 5572 5570 5568 5566 5565 5563 5561 5559 5557 5555 5553
5575 5575 5575 5575 5575 5575 5575 5576 5576 5576 5576 5576 5576 5576 5575 5575 5574 5574 5574 5573 5572 5571 5570 5570 5569 5568 5567 5566 5565 5563 5562 5561 5560 5558 5556 5554 5552 5551 5549 5547 5546 5544 5541
5565 5565 5565 5565 5565 5565 5565 5565 5566 5566 5565 5565 5565 5564 5563 5563 5563 5563 5562 5561 5560 5559 5558 5558 5557 5556 5555 5554 5553 5551 5550 5550 5548 5546 5544 5542 5541 5539 5537 5535 5534 5532 5530
5556 5556 5556 5555 5555 5554 5554 5554 5555 5555 5554 5554 5554 5553 5552 5552 5552 5551 5550 5549 5549 5548 5547 5546 5545 5544 5543 5542 5541 5540 5539 5538 5536 5534 5533 5531 5529 5528 5526 5524 5522 5521 5519
5546 5546 5546 5545 5545 5544 5544 5544 5544 5544 5543 5543 5543 5542 5541 5541 5540 5540 5539 5538 5538 5537 5536 5535 5534 5533 5532 5531 5530 5528 5527 5526 5525 5523 5522 5520 5518 5517 5515 5513 5512 5510 5508
5537 5536 5535 5535 5534 5533 5533 5533 5533 5532 5532 5532 5532 5531 5531 5530 5530 5529 5528 5528 5527 5526 5525 5524 5523 5522 5521 5520 5518 5517 5516 5515 5514 5513 5511 5509 5508 5506 5504 5503 5501 5499 5498
5527 5526 5525 5524 5523 5522 5521 5522 5522 5522 5522 5522 5522 5522 5521 5520 5520 5519 5518 5517 5516 5515 5514 5513 5512 5511 5510 5509 5508 5507 5505 5504 5503 5502 5500 5499 5497 5496 5494 5493 5491 5489 5488
5517 5516 5515 5514 5513 5512 5511 5511 5512 5512 5512 5512 5512 5512 5511 5511 5510 5509 5507 5507 5506 5505 5504 5503 5502 5501 5500 5499 5497 5496 5495 5494 5492 5491 5490 5489 5487 5486 5484 5483 5481 5479 5478
5508 5507 5506 5505 5504 5503 5502 5502 5502 5502 5503 5503 5502 5502 5501 5501 5500 5499 5498 5496 5496 5495 5494 5493 5492 5491 5490 5488 5487 5486 5485 5483 5482 5481 5480 5479 5477 5476 5475 5473 5471 5469 5468